Tracking 19254 objects as of 19-Oct-2018
HD Live streaming from Space Station
objects crossing your sky now

BEIDOU 3M14

Track BEIDOU 3M14 now!


NORAD ID: 43623
Int'l Code: 2018-072B
Perigee: 21,522.1 km
Apogee: 21,548.0 km
Inclination: 55.0 °
Period: 773.2 minutes
Semi major axis: 27906 km
RCS: Unknown
Launch date: September 19, 2018
Source: People's Republic of China (PRC)
Launch site: Xichang Space Center, China (XSC)
aabbcc
Your satellite tracking list
Your tracking list is empty




NASA's NSSDC Master Catalog

Two Line Element Set (TLE):
1 43623U 18072B   18291.54424412 +.00000021 +00000-0 +00000-0 0  9996
2 43623 054.9776 156.3846 0004642 317.1163 223.5250 01.86232401000533
Source of the keplerian elements: AFSPC